User: anonymous   Login
Location: ?
(35.4554°N, 139.3092°E)
Time: 02:51:10
(UTC+00:00)
Language:

Cosmos 1726 - Orbit

View from above orbital plane
View from above orbital plane
View from above satellite
View from above satellite

Ground track
Ground track

The orbit data is extracted from the following two-line orbital elements,

1 16495U 86006A   21174.59296095  .00001156  00000-0  43723-4 0  9991
2 16495  82.4725  37.0342 0014045  84.5856 275.6984 15.25826566939631
Epoch (UTC): 23 June 2021 14:13:51
Eccentricity: 0.0014045
inclination: 82.4725°
perigee height: 478 km
apogee height: 498 km
right ascension of ascending node: 37.0342°
argument of perigee: 84.5856°
revolutions per day: 15.25826566
mean anomaly at epoch: 275.6984°
orbit number at epoch: 93963

The dashed part of the orbit path shows where the satellite is in the earth's shadow,  

DLR